TimeEDT,TemperatureF,Dew PointF,Humidity,Sea Level PressureIn,VisibilityMPH,Wind Direction,Wind SpeedMPH,Gust SpeedMPH,PrecipitationIn,Events,Conditions,WindDirDegrees,DateUTC
12:03 AM,71.6,68.0,88,30.16,10.0,Variable,2.3,-,N/A,,Scattered Clouds,0,2013-09-10 04:03:00
12:48 AM,71.6,69.8,94,30.16,10.0,SSE,5.8,-,N/A,,Mostly Cloudy,150,2013-09-10 04:48:00
12:58 AM,72.1,68.9,89,30.17,10.0,SSE,5.8,-,N/A,,Mostly Cloudy,150,2013-09-10 04:58:00
1:03 AM,71.6,68.0,88,30.16,10.0,SSE,4.6,-,N/A,,Mostly Cloudy,160,2013-09-10 05:03:00
1:58 AM,72.1,69.6,92,30.16,10.0,SSE,4.6,-,N/A,,Mostly Cloudy,150,2013-09-10 05:58:00
2:43 AM,71.6,69.8,94,30.16,10.0,SSE,4.6,-,N/A,,Mostly Cloudy,150,2013-09-10 06:43:00
2:58 AM,72.1,70.3,94,30.17,10.0,SSE,4.6,-,N/A,,Mostly Cloudy,150,2013-09-10 06:58:00
3:13 AM,71.6,69.8,94,30.16,10.0,SE,4.6,-,N/A,,Scattered Clouds,140,2013-09-10 07:13:00
3:18 AM,71.6,69.8,94,30.16,9.0,SSE,5.8,-,N/A,,Partly Cloudy,160,2013-09-10 07:18:00
3:28 AM,71.6,69.8,94,30.15,10.0,Variable,4.6,-,N/A,,Clear,0,2013-09-10 07:28:00
3:38 AM,71.6,69.8,94,30.15,9.0,Variable,4.6,-,N/A,,Clear,0,2013-09-10 07:38:00
3:58 AM,72.1,70.5,95,30.16,7.0,Variable,4.6,-,N/A,,Scattered Clouds,0,2013-09-10 07:58:00
4:08 AM,71.6,69.8,94,30.15,5.0,Variable,3.5,-,N/A,,Scattered Clouds,0,2013-09-10 08:08:00
4:13 AM,71.6,69.8,94,30.15,6.0,SSE,3.5,-,N/A,,Mostly Cloudy,150,2013-09-10 08:13:00
4:18 AM,71.6,69.8,94,30.15,7.0,SSE,4.6,-,N/A,,Mostly Cloudy,150,2013-09-10 08:18:00
4:23 AM,71.6,69.8,94,30.15,6.0,SSE,3.5,-,N/A,,Scattered Clouds,150,2013-09-10 08:23:00
4:28 AM,71.6,69.8,94,30.15,5.0,SE,2.3,-,N/A,,Mostly Cloudy,140,2013-09-10 08:28:00
4:33 AM,71.6,69.8,94,30.15,4.0,SSE,2.3,-,N/A,,Mostly Cloudy,160,2013-09-10 08:33:00
4:38 AM,71.6,69.8,94,30.15,6.0,Variable,2.3,-,N/A,,Mostly Cloudy,0,2013-09-10 08:38:00
4:43 AM,71.6,69.8,94,30.15,9.0,South,2.3,-,N/A,,Mostly Cloudy,170,2013-09-10 08:43:00
4:48 AM,71.6,69.8,94,30.15,10.0,Variable,1.2,-,N/A,,Mostly Cloudy,0,2013-09-10 08:48:00
4:53 AM,71.6,71.6,100,30.15,9.0,SSE,2.3,-,N/A,,Overcast,160,2013-09-10 08:53:00
4:58 AM,72.3,70.9,95,30.16,9.0,SSE,2.3,-,N/A,,Overcast,160,2013-09-10 08:58:00
5:23 AM,71.6,71.6,100,30.16,10.0,Variable,2.3,-,N/A,,Overcast,0,2013-09-10 09:23:00
5:38 AM,71.6,69.8,94,30.15,9.0,Variable,2.3,-,N/A,,Overcast,0,2013-09-10 09:38:00
5:58 AM,72.7,70.3,92,30.17,10.0,Variable,4.6,-,N/A,,Overcast,0,2013-09-10 09:58:00
6:58 AM,72.7,70.0,91,30.18,10.0,Variable,4.6,-,N/A,,Overcast,0,2013-09-10 10:58:00
7:58 AM,73.0,70.2,91,30.19,10.0,Variable,3.5,-,N/A,,Mostly Cloudy,0,2013-09-10 11:58:00
8:13 AM,73.4,69.8,88,30.17,10.0,SSW,3.5,-,N/A,,Scattered Clouds,200,2013-09-10 12:13:00
8:43 AM,75.2,69.8,83,30.18,10.0,SSW,5.8,-,N/A,,Mostly Cloudy,210,2013-09-10 12:43:00
8:48 AM,75.2,69.8,83,30.17,10.0,Variable,5.8,-,N/A,,Mostly Cloudy,0,2013-09-10 12:48:00
8:58 AM,75.2,69.8,83,30.18,10.0,Variable,4.6,-,N/A,,Mostly Cloudy,0,2013-09-10 12:58:00
9:18 AM,77.0,69.8,78,30.18,10.0,Variable,4.6,-,N/A,,Scattered Clouds,0,2013-09-10 13:18:00
9:58 AM,77.9,71.1,79,30.20,10.0,South,4.6,-,N/A,,Scattered Clouds,190,2013-09-10 13:58:00
10:58 AM,80.8,71.8,74,30.20,10.0,Variable,4.6,-,N/A,,Clear,0,2013-09-10 14:58:00
11:58 AM,84.0,71.4,66,30.18,10.0,Variable,1.2,-,N/A,,Clear,0,2013-09-10 15:58:00
12:58 PM,86.4,71.6,61,30.17,10.0,Variable,3.5,-,N/A,,Clear,0,2013-09-10 16:58:00
1:58 PM,87.4,72.1,60,30.16,10.0,Variable,5.8,-,N/A,,Clear,0,2013-09-10 17:58:00
2:58 PM,90.0,71.4,54,30.14,10.0,SSW,8.1,-,N/A,,Clear,210,2013-09-10 18:58:00
3:58 PM,89.2,71.4,56,30.13,10.0,South,6.9,-,N/A,,Clear,190,2013-09-10 19:58:00
4:58 PM,88.9,70.7,55,30.12,10.0,South,5.8,-,N/A,,Clear,170,2013-09-10 20:58:00
5:58 PM,88.0,71.4,58,30.12,10.0,Variable,4.6,-,N/A,,Clear,0,2013-09-10 21:58:00
6:58 PM,85.3,72.5,65,30.12,10.0,Variable,2.3,-,N/A,,Clear,0,2013-09-10 22:58:00
7:58 PM,82.6,72.5,71,30.12,10.0,Variable,2.3,-,N/A,,Clear,0,2013-09-10 23:58:00
8:58 PM,79.5,73.4,81,30.14,10.0,Variable,3.5,-,N/A,,Clear,0,2013-09-11 00:58:00
9:58 PM,75.6,74.3,96,30.16,10.0,Calm,Calm,-,N/A,,Clear,0,2013-09-11 01:58:00
10:03 PM,75.2,75.2,100,30.15,10.0,SE,2.3,-,N/A,,Clear,140,2013-09-11 02:03:00
10:08 PM,75.2,75.2,100,30.15,9.0,SE,2.3,-,N/A,,Clear,140,2013-09-11 02:08:00
10:58 PM,74.1,74.1,100,30.17,7.0,Calm,Calm,-,N/A,,Clear,0,2013-09-11 02:58:00
11:38 PM,73.4,73.4,100,30.16,5.0,SE,1.2,-,N/A,,Clear,130,2013-09-11 03:38:00
11:48 PM,73.4,73.4,100,30.16,5.0,Calm,Calm,-,N/A,,Clear,0,2013-09-11 03:48:00
11:58 PM,72.9,72.9,100,30.17,5.0,Calm,Calm,-,N/A,,Clear,0,2013-09-11 03:58:00